FENGYUN 1C DEB, 30988

Orbit data source: Space-Track

FENGYUN 1C DEB, 30988 is space debris in SSO originally from a launch on Mon, 10 May 1999 UTC launched from the Taiyaun Space Center, China (TSC). Fengyun 1C debris stems from the Chinese weather satellite Fengyun-1C, which was intentionally destroyed by a Chinese anti-satellite missile in 2007. This event dramatically increased the amount of space debris, with thousands of trackable fragments posing hazards to satellites and human spaceflight. The Fengyun 1C debris cloud has become a focal point in discussions about space sustainability and the need for international regulations to prevent the creation of new debris.

Loading next visibility...
Identifier
30988, 1999-025BCE
Orbit
SSO
Country
Flag of CNCN / PRC
Related business
Manufacturer
Unknown
Mission
Spacecraft
Bus & Motor
Unknown
Mass
Unknown
Launch date (UTC)
1999-05-10 (27 years ago)
Launch vehicle
Unknown
Launch site
Taiyaun Space Center, China (TSC)
Object type
Payload
Rocket body
Debris
Shape & HBR
Unknown shape, 0.1 m
Radar Cross Section
Small (<0.1 m²)

Expand to show TLE details & history
Last TLE update: 1 day ago

TLE from 1 day ago
0 FENGYUN 1C DEB
1 30988U 99025BCE 26072.36434479  .00104725  00000-0  23273-2 0  9998
2 30988  98.5505  38.5847 0089735  28.2326 332.3738 15.39073004  9293
Epoch: 2026-03-13T08:44Z
TLE epoch observation values (Epoch: 2026-03-13T08:44:39.389Z)
Latitude
-0.00003°
Longitude
96.41965°
Altitude
397.76 km
Speed
7.702 km/s
True Right ascension
02h 34m 20s
True Declination
0° 00' 00"
Sunlit
Object was in daylight at epoch
Visualization orbit readout
Latitude
Unknown
Longitude
Unknown
Altitude
Unknown
Speed
Unknown
Apparent Right ascension
Unknown
Apparent Declination
Unknown
Sunlit
N/A
Visualization observer readout
Local Sidereal Time
14:44:46
Azimuth
Unknown
Elevation
Unknown
Doppler factor
Unknown
Orbital elements
Apogee altitude
507.077 km
Perigee altitude
384.607 km
Semi-major axis
6,823.979 km
Eccentricity
0.00897
Inclination
98.5505°
RAAN
38.5847°
Arg. of periapsis
28.2326°
True anomaly
331.8922°
Mean anomaly
332.3738°
Eccentric anomaly
332.13348°
Mean motion
3.85023 °/min
Orbital period
93.5 mins
BSTAR
0.0023273
Loading maneuver chart data...
Computing Atmospheric mass density...

Documentation

Showing up to 5 results
|